Regional Weather Roundup
Issued by NWS Charleston, WV

Home | Current Version | Previous Version | Graphics & Text | Print | Product List | Glossary On
Versions: 1 2 3 4 5 6 7 8 9 10 11 12 13 14 15 16 17 18 19 20 21 22 23 24 25 26 27
000
ASUS41 KRLX 051910
RWRRLX
West Virginia Regional Weather Roundup
National Weather Service Charleston WV
300 PM EDT THU MAY 05 2016

Note: "fair" indicates few or no clouds below 12,000 feet with no
significant weather and/or obstructions to visibility.

WVZ003-052000-
Northern Panhandle of West Virginia

CITY           SKY/WX    TMP DP  RH WIND       PRES   REMARKS
WHEELING       PTSUNNY   59  47  64 NW10      29.69F THUNDER
$$

WVZ009-052000-
Northwest West Virginia

CITY           SKY/WX    TMP DP  RH WIND       PRES   REMARKS
PARKERSBURG    CLOUDY    55  47  74 NW10      29.76S
$$

WVZ006-052000-
Western West Virginia

CITY           SKY/WX    TMP DP  RH WIND       PRES   REMARKS
HUNTINGTON     CLOUDY    55  39  54 NW7       29.77S
$$

WVZ015-052000-
West Central West Virginia

CITY           SKY/WX    TMP DP  RH WIND       PRES   REMARKS
CHARLESTON     LGT RAIN  49  43  80 W3        29.75S
$$

WVZ022-031-052000-
North Central West Virginia

CITY           SKY/WX    TMP DP  RH WIND       PRES   REMARKS
CLARKSBURG     CLOUDY    55  50  83 W7        29.67F
MORGANTOWN     CLOUDY    59  48  67 N6        29.67F
$$

WVZ025-035-042-045-052000-
Southern West Virginia

CITY           SKY/WX    TMP DP  RH WIND       PRES   REMARKS
BECKLEY        LGT RAIN  40  37  89 N8        29.73R
LOGAN          NOT AVBL
BLUEFIELD      LGT RAIN  39  37  92 W8        29.72R
LEWISBURG      LGT RAIN  44  40  86 NW5       29.68S
$$

WVZ047-052000-
Northern Mountains of West Virginia

CITY           SKY/WX    TMP DP  RH WIND       PRES   REMARKS
ELKINS         LGT RAIN  51  46  83 NW8       29.68S
$$

WVZ052-052000-
Eastern Panhandle of West Virginia

CITY           SKY/WX    TMP DP  RH WIND       PRES   REMARKS
MARTINSBURG    CLOUDY    54  47  77 N6        29.66S
PETERSBURG     DRIZZLE   55  50  83 CALM      29.67F
$$




USA.gov is the U.S. government's official web portal to all federal, state and local government web resources and services.